FW9881 Weather Reports


time (UTC)temp
C
wind
direction
speed
KPH
gust
KPH
rain 1hr
cm
rain 24hr
cm
rain mn
cm
humidity
%
barometer
mb
20260905041940 15 315 0.0 0.0 0.00 0.00 0.00 89 1013.9
20260905041827 15 315 0.0 0.0 0.00 0.00 0.00 89 1013.9
20260905040826 15 277 1.6 3.2 0.00 0.00 0.00 88 1013.8
20260905035827 15 247 0.0 0.0 0.00 0.00 0.00 88 1013.8
20260905032727 16 247 0.0 1.6 0.00 0.00 0.00 85 1013.7
20260905031743 16 202 0.0 0.0 0.00 0.00 0.00 86 1013.7
20260905030726 16 292 0.0 0.0 0.00 0.00 0.00 85 1013.7
20260905025727 16 292 0.0 0.0 0.00 0.00 0.00 86 1013.7
20260905024726 16 292 0.0 0.0 0.00 0.00 0.00 87 1013.9
20260905023825 16 310 1.6 4.8 0.00 0.00 0.00 87 1013.9
20260905022827 16 337 0.0 0.0 0.00 0.00 0.00 87 1014.1
20260905021842 16 337 0.0 0.0 0.00 0.00 0.00 87 1014.1
20260905021726 16 337 0.0 0.0 0.00 0.00 0.00 87 1014.1
20260905020726 16 337 0.0 0.0 0.00 0.00 0.00 86 1014.2
20260905020625 16 337 0.0 0.0 0.00 0.00 0.00 87 1014.3
20260905015626 16 337 0.0 0.0 0.00 0.00 0.00 87 1014.3
20260905014726 16 337 0.0 0.0 0.00 0.00 0.00 85 1014.4
20260905013825 16 337 0.0 0.0 0.00 0.00 0.00 85 1014.4
20260905013726 16 337 0.0 0.0 0.00 0.00 0.00 85 1014.4
20260905012825 16 337 0.0 0.0 0.00 0.00 0.00 85 1014.5
20260905011825 16 337 0.0 0.0 0.00 0.00 0.00 84 1014.4
20260905010841 17 337 0.0 0.0 0.00 0.00 0.00 82 1014.3
20260905010725 17 337 0.0 0.0 0.00 0.00 0.00 82 1014.3
20260905005726 17 337 0.0 0.0 0.00 0.00 0.00 81 1014.1
20260905005625 17 337 0.0 0.0 0.00 0.00 0.00 80 1014.2
20260905004627 17 337 0.0 0.0 0.00 0.00 0.00 80 1014.3
20260905003628 18 337 0.0 0.0 0.00 0.00 0.00 78 1014.3
20260905002626 18 337 0.0 0.0 0.00 0.00 0.00 77 1014.1
20260905000627 19 315 3.2 4.8 0.00 0.00 0.00 76 1013.9
20260904235628 19 337 3.2 4.8 0.00 0.00 0.00 77 1013.9
20260904235525 19 337 3.2 4.8 0.00 0.00 0.00 77 1013.9
20260904234527 19 337 1.6 6.4 0.00 0.00 0.00 77 1013.8
20260904233426 19 270 0.0 0.0 0.00 0.00 0.00 74 1013.8
20260904232427 20 337 0.0 0.0 0.00 0.00 0.00 73 1013.7
20260904230426 21 337 0.0 0.0 0.00 0.00 0.00 67 1013.4
20260904225425 21 337 0.0 0.0 0.00 0.00 0.00 65 1013.3
20260904225325 21 337 0.0 1.6 0.00 0.00 0.00 64 1013.2
20260904224343 22 337 3.2 4.8 0.00 0.00 0.00 61 1013.3
20260904223427 22 337 3.2 4.8 0.00 0.00 0.00 60 1013.0
20260904222525 23 277 0.0 1.6 0.00 0.00 0.00 58 1012.9
20260904221527 23 337 0.0 1.6 0.00 0.00 0.00 57 1012.9
20260904220527 24 333 1.6 4.8 0.00 0.00 0.00 56 1012.9
20260904215624 24 318 3.2 8.0 0.00 0.00 0.00 56 1012.9
20260904215526 24 337 1.6 4.8 0.00 0.00 0.00 56 1013.0
20260904213626 25 349 3.2 4.8 0.00 0.00 0.00 55 1012.8
20260904212725 25 258 8.0 16.1 0.00 0.00 0.00 54 1012.8
20260904212627 25 308 1.6 8.0 0.00 0.00 0.00 53 1012.8
20260904212525 25 279 6.4 11.3 0.00 0.00 0.00 53 1012.8
20260904211527 25 259 6.4 9.7 0.00 0.00 0.00 52 1012.6
20260904210526 25 341 3.2 6.4 0.00 0.00 0.00 52 1012.8
20260904210427 25 352 1.6 6.4 0.00 0.00 0.00 51 1012.8
20260904205524 25 337 1.6 4.8 0.00 0.00 0.00 51 1012.7
20260904204526 25 337 3.2 4.8 0.00 0.00 0.00 50 1012.7
20260904202428 26 328 0.0 4.8 0.00 0.00 0.00 51 1012.6
20260904201525 25 319 6.4 9.7 0.00 0.00 0.00 52 1012.6
20260904201425 25 355 6.4 12.9 0.00 0.00 0.00 51 1012.5
20260904200427 26 343 4.8 8.0 0.00 0.00 0.00 49 1012.6
20260904200328 26 337 3.2 6.4 0.00 0.00 0.00 50 1012.6
20260904195325 26 322 1.6 6.4 0.00 0.00 0.00 50 1012.6
20260904192325 26 2 3.2 6.4 0.00 0.00 0.00 51 1012.6
20260904191324 26 263 1.6 6.4 0.00 0.00 0.00 51 1012.7
20260904190326 25 305 1.6 3.2 0.00 0.00 0.00 52 1012.6
20260904185326 25 265 8.0 11.3 0.00 0.00 0.00 54 1012.6
20260904185240 25 261 6.4 16.1 0.00 0.00 0.00 54 1012.6
20260904184325 25 305 0.0 0.0 0.00 0.00 0.00 57 1012.8
20260904183326 25 326 3.2 6.4 0.00 0.00 0.00 56 1012.9
20260904182425 25 355 4.8 11.3 0.00 0.00 0.00 55 1013.2
20260904181427 25 252 8.0 12.9 0.00 0.00 0.00 59 1013.2
20260904180426 24 337 3.2 6.4 0.00 0.00 0.00 58 1013.2
20260904175426 25 276 8.0 14.5 0.00 0.00 0.00 56 1013.0
20260904174426 25 256 8.0 16.1 0.00 0.00 0.00 55 1012.7
20260904173524 25 244 1.6 4.8 0.00 0.00 0.00 54 1012.8
20260904172527 25 348 4.8 9.7 0.00 0.00 0.00 52 1013.0
20260904172425 25 327 3.2 9.7 0.00 0.00 0.00 53 1013.0
20260904171326 25 11 0.0 4.8 0.00 0.00 0.00 53 1012.9
20260904165342 25 256 1.6 8.0 0.00 0.00 0.00 56 1013.2
20260904163326 25 334 6.4 11.3 0.00 0.00 0.00 56 1013.3
20260904162327 25 305 3.2 6.4 0.00 0.00 0.00 55 1013.2
20260904160425 25 337 1.6 4.8 0.00 0.00 0.00 57 1013.4
20260904155427 25 326 6.4 11.3 0.00 0.00 0.00 58 1013.6
20260904154525 24 337 3.2 9.7 0.00 0.00 0.00 59 1013.6
20260904153426 24 343 6.4 11.3 0.00 0.00 0.00 60 1013.7
20260904152425 24 344 4.8 9.7 0.00 0.00 0.00 62 1013.7
20260904151424 23 260 6.4 11.3 0.00 0.00 0.00 63 1013.7
20260904150441 23 274 3.2 14.5 0.00 0.00 0.00 66 1013.8
20260904145425 23 279 6.4 11.3 0.00 0.00 0.00 68 1013.9
20260904145326 23 279 3.2 6.4 0.00 0.00 0.00 69 1013.8
20260904144241 23 322 1.6 4.8 0.00 0.00 0.00 75 1013.9
20260904143242 22 199 0.0 1.6 0.00 0.00 0.00 79 1013.7
20260904141243 21 270 0.0 0.0 0.00 0.00 0.00 88 1014.2
20260904140326 20 337 1.6 4.8 0.00 0.00 0.00 88 1014.4
20260904135424 20 331 3.2 11.3 0.00 0.00 0.00 88 1014.5
20260904133525 19 320 3.2 6.4 0.00 0.00 0.00 84 1014.5
20260904133426 19 338 1.6 6.4 0.00 0.00 0.00 84 1014.5
20260904132425 18 342 3.2 8.0 0.00 0.00 0.00 84 1014.4
20260904131425 18 337 0.0 1.6 0.00 0.00 0.00 84 1014.6
20260904130426 17 337 0.0 3.2 0.00 0.00 0.00 84 1014.6
20260904125425 17 225 0.0 1.6 0.00 0.00 0.00 84 1014.6
20260904123324 15 157 1.6 3.2 0.00 0.00 0.00 85 1014.5
20260904122324 15 157 0.0 1.6 0.00 0.00 0.00 85 1014.6
20260904122225 15 157 0.0 0.0 0.00 0.00 0.00 85 1014.5
20260904122126 15 157 0.0 1.6 0.00 0.00 0.00 85 1014.5
20260904121125 14 157 0.0 1.6 0.00 0.00 0.00 85 1014.6
20260904115224 14 292 0.0 0.0 0.00 0.00 0.00 85 1014.5
20260904115127 14 292 0.0 0.0 0.00 0.00 0.00 84 1014.5
20260904114126 14 292 0.0 0.0 0.00 0.00 0.00 84 1014.6
20260904113125 14 292 0.0 0.0 0.00 0.00 0.00 85 1014.5
20260904112225 14 292 0.0 0.0 0.00 0.00 0.00 85 1014.5
20260904111324 13 292 0.0 0.0 0.00 0.00 0.00 84 1014.4
20260904111224 13 292 0.0 0.0 0.00 0.00 0.00 85 1014.5
20260904110227 13 22 0.0 0.0 0.00 0.00 0.00 84 1014.5
20260904105324 13 22 0.0 0.0 0.00 0.00 0.00 85 1014.4
20260904104327 13 22 0.0 0.0 0.00 0.00 0.00 84 1014.3
20260904103324 13 22 0.0 0.0 0.00 0.00 0.00 85 1014.3
20260904102327 13 22 0.0 0.0 0.00 0.00 0.00 85 1014.3
20260904101425 13 180 0.0 0.0 0.00 0.00 0.00 85 1014.2
20260904100524 13 180 0.0 0.0 0.00 0.00 0.00 85 1014.3
20260904095526 13 180 0.0 0.0 0.00 0.00 0.00 85 1014.3
20260904092623 13 180 0.0 0.0 0.00 0.00 0.00 85 1014.1
20260904091625 13 180 0.0 0.0 0.00 0.03 0.00 84 1014.0
20260904090625 13 180 0.0 0.0 0.00 0.03 0.00 84 1014.1
20260904090542 13 180 0.0 0.0 0.00 0.03 0.00 85 1014.1
20260904085524 14 180 0.0 0.0 0.00 0.03 0.00 84 1014.1
20260904085425 14 180 0.0 0.0 0.00 0.03 0.00 84 1014.0
20260904084440 14 180 0.0 0.0 0.00 0.03 0.00 85 1013.9
20260904083527 14 180 0.0 0.0 0.00 0.05 0.00 85 1014.1
20260904082623 14 180 0.0 0.0 0.00 0.05 0.00 85 1014.0
20260904082544 14 180 0.0 0.0 0.00 0.05 0.00 84 1014.1
20260904081626 14 180 0.0 0.0 0.00 0.05 0.00 85 1014.1
20260904081540 14 180 0.0 0.0 0.00 0.05 0.00 85 1014.1
20260904080624 14 180 0.0 0.0 0.00 0.05 0.00 84 1014.2
20260904075724 14 180 0.0 0.0 0.00 0.05 0.00 84 1014.4
20260904073725 15 180 0.0 0.0 0.00 0.05 0.00 84 1014.3
20260904071724 15 180 0.0 0.0 0.00 0.05 0.00 83 1014.3
20260904070724 15 180 0.0 0.0 0.00 0.05 0.00 84 1014.4
20260904065724 15 180 0.0 0.0 0.00 0.05 0.00 84 1014.4
20260904064726 15 180 0.0 0.0 0.00 0.05 0.00 84 1014.5
20260904064624 15 180 0.0 0.0 0.00 0.05 0.00 83 1014.5
20260904063724 15 180 0.0 0.0 0.00 0.08 0.00 83 1014.5
20260904062740 15 180 0.0 0.0 0.00 0.10 0.00 84 1014.5
20260904061825 15 180 0.0 0.0 0.00 0.10 0.00 84 1014.5
20260904061740 15 180 0.0 0.0 0.00 0.10 0.00 84 1014.5
20260904060826 15 180 0.0 0.0 0.00 0.15 0.00 83 1014.6
20260904055826 16 180 0.0 0.0 0.00 0.18 0.00 84 1014.7
20260904054824 16 180 0.0 0.0 0.00 0.18 0.00 84 1015.0
20260904053824 16 180 0.0 0.0 0.00 0.18 0.00 83 1015.1
20260904051924 16 180 0.0 0.0 0.00 0.18 0.00 83 1015.3
20260904050926 16 180 0.0 0.0 0.00 0.18 0.00 84 1015.3
20260904050023 16 180 0.0 0.0 0.00 0.18 0.00 84 1015.4
20260904045023 16 180 0.0 0.0 0.00 0.18 0.00 84 1015.4
20260904044025 16 180 0.0 0.0 0.00 0.18 0.00 84 1015.4
20260904043024 17 180 1.6 3.2 0.00 0.18 0.00 84 1015.4